WXM80 ListenWXM80 Stop

You find our weather info also at:

UK Metoffice

WeatherCloud

Weather Underground

Northeastern Weather Network

AWEKAS

Citizen Weather Observer Program (CWOP)

HAMweather, WeatherForYou, PWS Weather


Weather Underground History page Text

Daily Summary for August 25, 2017 Units:  English    Metric   Both
« Previous Day
Next Day »
Daily Weekly Monthly Yearly Custom
  High: Low: Average:
Temperature: 82.6 °F 65.1 °F 71.2 °F
Dew Point: 65.4 °F 56.7 °F 59.8 °F
Humidity: 84 % 44 % 69 %
Wind Speed: 8.5 mph 0.0 mph 1.6 mph
Wind Gust: 11.5 mph - -
Wind:- - SSE
Pressure: 30.14 in 29.92 in -
Precipitation: 0.00 in    
Historical Graphs
 
 
Tabular Data for August 25, 2017
Time Temperature Dew Point Pressure Wind Wind Speed Wind Gust Humidity Rainfall Rate (Hourly)
00:01 67.0 °F 59.5 °F 29.92 in North 1.6 mph 4.6 mph 77 % 0.00 in
00:06 67.2 °F 59.0 °F 29.92 in North 2.7 mph 8.0 mph 75 % 0.00 in
00:11 67.3 °F 59.1 °F 29.92 in NW 0.2 mph 3.5 mph 75 % 0.00 in
00:16 67.4 °F 59.6 °F 29.93 in West 1.1 mph 2.0 mph 76 % 0.00 in
00:21 67.5 °F 59.7 °F 29.93 in Calm     76 % 0.00 in
00:26 67.5 °F 59.3 °F 29.93 in South 1.0 mph 1.0 mph 75 % 0.00 in
00:32 67.5 °F 58.9 °F 29.93 in North 0.8 mph 4.6 mph 74 % 0.00 in
00:37 67.5 °F 58.9 °F 29.93 in WNW 1.5 mph 4.6 mph 74 % 0.00 in
00:42 67.4 °F 58.8 °F 29.93 in NNE 1.5 mph 6.9 mph 74 % 0.00 in
00:47 67.4 °F 58.8 °F 29.93 in North 2.7 mph 5.0 mph 74 % 0.00 in
00:52 67.3 °F 58.7 °F 29.93 in West 1.2 mph 3.5 mph 74 % 0.00 in
00:57 67.3 °F 58.7 °F 29.94 in SW 0.5 mph 2.0 mph 74 % 0.00 in
01:02 67.2 °F 58.6 °F 29.94 in SW 0.2 mph 2.3 mph 74 % 0.00 in
01:07 67.2 °F 59.0 °F 29.94 in SW 0.3 mph 2.3 mph 75 % 0.00 in
01:12 67.1 °F 58.9 °F 29.94 in Calm     75 % 0.00 in
01:17 67.1 °F 58.9 °F 29.94 in Calm     75 % 0.00 in
01:22 67.0 °F 59.2 °F 29.94 in NNE 0.4 mph 2.3 mph 76 % 0.00 in
01:27 66.8 °F 59.0 °F 29.94 in Calm     76 % 0.00 in
01:32 66.7 °F 58.5 °F 29.94 in ENE 0.5 mph 3.5 mph 75 % 0.00 in
01:37 66.7 °F 58.9 °F 29.94 in ENE 0.1 mph 1.2 mph 76 % 0.00 in
01:42 66.6 °F 58.8 °F 29.94 in NE 0.5 mph 1.2 mph 76 % 0.00 in
01:47 66.5 °F 58.7 °F 29.94 in NE 0.2 mph 1.2 mph 76 % 0.00 in
01:52 66.4 °F 58.6 °F 29.94 in NNE 0.1 mph 2.3 mph 76 % 0.00 in
01:57 66.3 °F 58.5 °F 29.94 in North 1.5 mph 3.5 mph 76 % 0.00 in
02:02 66.1 °F 58.3 °F 29.94 in North 2.7 mph 5.8 mph 76 % 0.00 in
02:08 66.0 °F 58.2 °F 29.94 in NNE 2.3 mph 4.0 mph 76 % 0.00 in
02:13 65.9 °F 58.5 °F 29.94 in NE 2.1 mph 3.5 mph 77 % 0.00 in
02:18 65.9 °F 58.5 °F 29.94 in NE 3.5 mph 7.0 mph 77 % 0.00 in
02:23 65.8 °F 57.7 °F 29.94 in NE 2.7 mph 6.9 mph 75 % 0.00 in
02:28 65.8 °F 57.7 °F 29.95 in NNE 3.6 mph 6.0 mph 75 % 0.00 in
02:33 65.7 °F 57.6 °F 29.95 in NNE 2.3 mph 4.6 mph 75 % 0.00 in
02:38 65.8 °F 58.0 °F 29.95 in Calm   5.8 mph 76 % 0.00 in
02:43 65.7 °F 57.9 °F 29.95 in North 0.5 mph 3.5 mph 76 % 0.00 in
02:53 65.7 °F 58.3 °F 29.95 in North 2.2 mph 3.5 mph 77 % 0.00 in
02:58 65.6 °F 57.8 °F 29.95 in NW 0.7 mph 2.3 mph 76 % 0.00 in
03:03 65.6 °F 57.8 °F 29.95 in NNE 2.3 mph 4.6 mph 76 % 0.00 in
03:08 65.6 °F 57.8 °F 29.96 in North 2.8 mph 7.0 mph 76 % 0.00 in
03:13 65.7 °F 58.3 °F 29.96 in NW 1.2 mph 3.0 mph 77 % 0.00 in
03:18 65.8 °F 58.4 °F 29.97 in NNW 3.7 mph 5.8 mph 77 % 0.00 in
03:23 65.8 °F 57.7 °F 29.97 in WNW 1.7 mph 5.8 mph 75 % 0.00 in
03:28 65.8 °F 57.7 °F 29.97 in North 1.2 mph 3.5 mph 75 % 0.00 in
03:33 65.9 °F 58.5 °F 29.97 in NNE 1.0 mph 4.0 mph 77 % 0.00 in
03:38 65.9 °F 57.7 °F 29.97 in NW 2.2 mph 4.6 mph 75 % 0.00 in
03:43 65.9 °F 57.7 °F 29.97 in West 3.5 mph 3.5 mph 75 % 0.00 in
03:48 65.9 °F 57.7 °F 29.97 in NNE 2.3 mph 8.1 mph 75 % 0.00 in
03:54 65.9 °F 57.7 °F 29.97 in WNW 2.2 mph 3.5 mph 75 % 0.00 in
03:59 65.9 °F 58.1 °F 29.97 in NNW 4.1 mph 8.1 mph 76 % 0.00 in
04:04 66.0 °F 57.5 °F 29.97 in NNE 4.3 mph 11.5 mph 74 % 0.00 in
04:09 66.0 °F 57.8 °F 29.97 in NNW 4.3 mph 9.0 mph 75 % 0.00 in
04:14 66.0 °F 58.6 °F 29.97 in North 4.1 mph 5.8 mph 77 % 0.00 in
04:19 66.0 °F 58.2 °F 29.97 in North 6.7 mph 11.5 mph 76 % 0.00 in
04:24 66.0 °F 58.6 °F 29.97 in NE 5.9 mph 10.4 mph 77 % 0.00 in
04:29 66.0 °F 59.3 °F 29.97 in North 4.1 mph 10.0 mph 79 % 0.00 in
04:34 66.0 °F 58.6 °F 29.97 in North 8.5 mph 11.5 mph 77 % 0.00 in
04:39 65.9 °F 58.5 °F 29.97 in North 4.2 mph 8.1 mph 77 % 0.00 in
04:44 65.9 °F 58.5 °F 29.97 in NE 3.2 mph 8.1 mph 77 % 0.00 in
04:49 65.8 °F 58.4 °F 29.97 in NNE 3.1 mph 3.5 mph 77 % 0.00 in
04:54 65.8 °F 58.7 °F 29.97 in NNE 3.6 mph 6.9 mph 78 % 0.00 in
04:59 65.8 °F 58.7 °F 29.97 in NNE 0.3 mph 2.3 mph 78 % 0.00 in
05:04 65.8 °F 58.7 °F 29.97 in North 0.3 mph 2.3 mph 78 % 0.00 in
05:09 65.8 °F 58.4 °F 29.97 in Calm   1.2 mph 77 % 0.00 in
05:14 65.8 °F 58.4 °F 29.97 in Calm     77 % 0.00 in
05:19 65.7 °F 58.7 °F 29.97 in North 0.1 mph 1.2 mph 78 % 0.00 in
05:24 65.7 °F 58.3 °F 29.97 in NNW 0.6 mph 2.3 mph 77 % 0.00 in
05:29 65.6 °F 57.8 °F 29.97 in NNW 2.6 mph 4.6 mph 76 % 0.00 in
05:34 65.6 °F 58.9 °F 29.98 in North 3.6 mph 6.9 mph 79 % 0.00 in
05:39 65.6 °F 59.6 °F 29.99 in North 0.6 mph 4.6 mph 81 % 0.00 in
05:44 65.7 °F 60.1 °F 29.99 in NNE 0.4 mph 2.3 mph 82 % 0.00 in
05:50 65.6 °F 59.6 °F 29.99 in NNE 3.1 mph 4.6 mph 81 % 0.00 in
05:55 65.5 °F 59.5 °F 29.99 in North 2.6 mph 4.0 mph 81 % 0.00 in
06:00 65.4 °F 59.8 °F 29.99 in NNE 2.7 mph 4.0 mph 82 % 0.00 in
06:05 65.4 °F 59.8 °F 29.99 in North 2.3 mph 4.6 mph 82 % 0.00 in
06:10 65.4 °F 59.8 °F 29.99 in NE 4.3 mph 6.0 mph 82 % 0.00 in
06:15 65.2 °F 59.6 °F 30.00 in NE 2.0 mph 3.5 mph 82 % 0.00 in
06:20 65.2 °F 59.9 °F 30.00 in North 3.0 mph 5.0 mph 83 % 0.00 in
06:25 65.2 °F 59.9 °F 30.00 in NE 4.0 mph 7.0 mph 83 % 0.00 in
06:30 65.1 °F 59.8 °F 30.00 in NNE 2.7 mph 6.0 mph 83 % 0.00 in
06:35 65.1 °F 60.1 °F 30.00 in North 3.7 mph 6.0 mph 84 % 0.00 in
06:40 65.1 °F 59.8 °F 30.00 in North 2.6 mph 7.0 mph 83 % 0.00 in
06:45 65.1 °F 59.8 °F 30.00 in North 2.1 mph 4.6 mph 83 % 0.00 in
06:50 65.1 °F 59.8 °F 30.01 in NNW 2.0 mph 5.8 mph 83 % 0.00 in
06:55 65.1 °F 60.1 °F 30.01 in NNE 1.8 mph 4.0 mph 84 % 0.00 in
07:00 65.1 °F 60.1 °F 30.01 in North 3.1 mph 5.8 mph 84 % 0.00 in
07:05 65.2 °F 60.2 °F 30.01 in NNE 3.2 mph 5.8 mph 84 % 0.00 in
07:10 65.2 °F 60.2 °F 30.01 in North 4.1 mph 6.9 mph 84 % 0.00 in
07:15 65.2 °F 59.9 °F 30.01 in NE 3.8 mph 6.9 mph 83 % 0.00 in
07:20 65.2 °F 59.9 °F 30.02 in NNW 4.0 mph 5.0 mph 83 % 0.00 in
07:26 65.2 °F 59.9 °F 30.02 in NNE 5.7 mph 9.2 mph 83 % 0.00 in
07:31 65.2 °F 59.9 °F 30.01 in North 5.0 mph 10.0 mph 83 % 0.00 in
07:36 65.3 °F 60.0 °F 30.01 in NNE 6.0 mph 6.0 mph 83 % 0.00 in
07:41 65.3 °F 60.3 °F 30.01 in NNE 6.0 mph 9.0 mph 84 % 0.00 in
07:46 65.4 °F 60.1 °F 30.01 in North 5.0 mph 9.0 mph 83 % 0.00 in
07:51 65.5 °F 60.5 °F 30.02 in NNE 4.4 mph 6.9 mph 84 % 0.00 in
07:56 65.6 °F 60.6 °F 30.02 in NNE 2.6 mph 9.2 mph 84 % 0.00 in
08:01 65.7 °F 60.7 °F 30.02 in NNE 4.2 mph 7.0 mph 84 % 0.00 in
08:06 65.8 °F 60.5 °F 30.02 in North 3.7 mph 5.8 mph 83 % 0.00 in
08:11 65.8 °F 60.5 °F 30.02 in North 6.0 mph 9.0 mph 83 % 0.00 in
08:16 65.9 °F 60.6 °F 30.03 in North 3.0 mph 8.0 mph 83 % 0.00 in
08:21 66.0 °F 60.7 °F 30.02 in North 2.0 mph 9.0 mph 83 % 0.00 in
08:26 66.1 °F 60.8 °F 30.03 in North 5.0 mph 10.0 mph 83 % 0.00 in
08:31 66.1 °F 60.8 °F 30.03 in North 5.0 mph 8.0 mph 83 % 0.00 in
08:36 66.2 °F 60.9 °F 30.03 in North 3.0 mph 7.0 mph 83 % 0.00 in
08:41 66.3 °F 61.0 °F 30.03 in North 3.0 mph 7.0 mph 83 % 0.00 in
08:46 66.4 °F 61.1 °F 30.03 in North 3.0 mph 9.0 mph 83 % 0.00 in
08:51 66.5 °F 60.8 °F 30.03 in NNE 5.4 mph 9.2 mph 82 % 0.00 in
08:56 66.6 °F 60.9 °F 30.04 in North 3.0 mph 9.0 mph 82 % 0.00 in
09:01 66.7 °F 61.0 °F 30.04 in North 2.3 mph 4.6 mph 82 % 0.00 in
09:06 66.8 °F 60.8 °F 30.04 in North 6.0 mph 9.0 mph 81 % 0.00 in
09:11 66.9 °F 60.9 °F 30.04 in North 2.8 mph 6.9 mph 81 % 0.00 in
09:16 67.0 °F 60.6 °F 30.04 in North 3.0 mph 7.0 mph 80 % 0.00 in
09:21 67.1 °F 60.7 °F 30.04 in North 3.0 mph 8.0 mph 80 % 0.00 in
09:26 67.2 °F 60.8 °F 30.04 in North 2.0 mph 7.0 mph 80 % 0.00 in
09:31 67.4 °F 61.0 °F 30.04 in Calm   7.0 mph 80 % 0.00 in
09:36 67.6 °F 60.9 °F 30.04 in NNE 2.0 mph 7.0 mph 79 % 0.00 in
09:41 67.8 °F 61.0 °F 30.04 in NNE 1.0 mph 7.0 mph 79 % 0.00 in
09:46 68.3 °F 61.5 °F 30.04 in NNW 2.5 mph 4.6 mph 79 % 0.00 in
09:47 68.4 °F 61.3 °F 30.04 in NNE 2.6 mph 4.0 mph 78 % 0.00 in
09:52 69.1 °F 61.2 °F 30.04 in ENE 2.2 mph 6.9 mph 76 % 0.00 in
09:57 69.9 °F 61.2 °F 30.04 in North 4.8 mph 5.0 mph 74 % 0.00 in
10:02 70.6 °F 61.5 °F 30.04 in North 2.8 mph 3.5 mph 73 % 0.00 in
10:07 71.0 °F 61.1 °F 30.05 in NNE 1.9 mph 5.8 mph 71 % 0.00 in
10:12 71.3 °F 61.8 °F 30.04 in North 1.7 mph 4.0 mph 72 % 0.00 in
10:17 71.4 °F 61.5 °F 30.05 in NNE 0.6 mph 3.5 mph 71 % 0.00 in
10:22 71.4 °F 60.7 °F 30.05 in NNE 1.3 mph 4.0 mph 69 % 0.00 in
10:27 71.4 °F 61.5 °F 30.05 in NNE 2.2 mph 5.0 mph 71 % 0.00 in
10:32 71.4 °F 61.5 °F 30.05 in NNE 3.6 mph 4.6 mph 71 % 0.00 in
10:38 71.5 °F 61.2 °F 30.05 in NE 0.7 mph 3.5 mph 70 % 0.00 in
10:43 71.8 °F 61.1 °F 30.05 in ENE 0.8 mph 4.0 mph 69 % 0.00 in
10:48 72.2 °F 61.9 °F 30.05 in NE 1.9 mph 4.6 mph 70 % 0.00 in
10:53 72.6 °F 62.3 °F 30.04 in NNE 1.7 mph 3.5 mph 70 % 0.00 in
10:58 73.2 °F 62.0 °F 30.04 in NNE 2.4 mph 4.6 mph 68 % 0.00 in
11:03 73.7 °F 62.1 °F 30.05 in NNE 1.6 mph 3.5 mph 67 % 0.00 in
11:08 74.4 °F 62.7 °F 30.05 in NNE 0.1 mph 1.2 mph 67 % 0.00 in
11:13 75.3 °F 62.7 °F 30.05 in NNE 0.4 mph 3.5 mph 65 % 0.00 in
11:18 75.9 °F 62.4 °F 30.05 in NE 0.4 mph 2.0 mph 63 % 0.00 in
11:23 76.5 °F 62.5 °F 30.05 in North 3.2 mph 4.0 mph 62 % 0.00 in
11:28 76.8 °F 62.3 °F 30.05 in North 2.4 mph 4.6 mph 61 % 0.00 in
11:33 77.3 °F 63.3 °F 30.05 in North 2.1 mph 4.6 mph 62 % 0.00 in
11:38 77.4 °F 62.9 °F 30.04 in NNE 1.9 mph 4.6 mph 61 % 0.00 in
11:43 77.9 °F 62.9 °F 30.05 in NE 0.9 mph 4.0 mph 60 % 0.00 in
11:48 78.3 °F 62.3 °F 30.05 in NNE 2.2 mph 3.5 mph 58 % 0.00 in
11:53 78.7 °F 62.7 °F 30.05 in NE 0.5 mph 2.0 mph 58 % 0.00 in
11:58 79.2 °F 61.6 °F 30.05 in NE 1.1 mph 3.5 mph 55 % 0.00 in
12:03 79.6 °F 62.5 °F 30.04 in NNW 2.4 mph 4.0 mph 56 % 0.00 in
12:08 80.0 °F 62.9 °F 30.04 in NNE 1.1 mph 4.0 mph 56 % 0.00 in
12:13 80.4 °F 61.7 °F 30.05 in NNW 0.3 mph 1.2 mph 53 % 0.00 in
12:18 80.7 °F 62.0 °F 30.04 in North 0.6 mph 4.0 mph 53 % 0.00 in
12:23 80.9 °F 62.2 °F 30.05 in NNE 1.8 mph 3.5 mph 53 % 0.00 in
12:28 81.0 °F 60.6 °F 30.05 in NNW 0.7 mph 3.0 mph 50 % 0.00 in
12:33 81.2 °F 63.5 °F 30.04 in NNW 2.5 mph 3.5 mph 55 % 0.00 in
12:38 81.5 °F 64.8 °F 30.05 in NW 1.0 mph 3.5 mph 57 % 0.00 in
12:43 81.9 °F 62.5 °F 30.04 in WNW 0.1 mph 1.2 mph 52 % 0.00 in
12:48 82.2 °F 63.9 °F 30.05 in NNW 0.4 mph 2.3 mph 54 % 0.00 in
12:53 82.3 °F 61.2 °F 30.04 in Calm   3.5 mph 49 % 0.00 in
12:58 82.4 °F 62.5 °F 30.04 in WNW 1.7 mph 3.5 mph 51 % 0.00 in
13:03 82.1 °F 60.5 °F 30.04 in Calm   3.5 mph 48 % 0.00 in
13:09 82.2 °F 63.4 °F 30.04 in NNW 1.4 mph 3.5 mph 53 % 0.00 in
13:14 82.1 °F 62.7 °F 30.04 in WNW 2.4 mph 4.6 mph 52 % 0.00 in
13:19 82.1 °F 62.7 °F 30.04 in NW 0.8 mph 4.6 mph 52 % 0.00 in
13:24 82.2 °F 65.4 °F 30.04 in NNW 0.2 mph 2.3 mph 57 % 0.00 in
13:29 82.3 °F 62.9 °F 30.04 in SW 1.0 mph 3.5 mph 52 % 0.00 in
13:34 82.2 °F 61.1 °F 30.04 in SW 1.2 mph 3.5 mph 49 % 0.00 in
13:39 82.1 °F 62.7 °F 30.04 in SW 1.1 mph 3.0 mph 52 % 0.00 in
13:44 82.4 °F 64.6 °F 30.04 in WSW 0.2 mph 2.0 mph 55 % 0.00 in
13:49 82.6 °F 63.2 °F 30.04 in WNW 0.9 mph 3.5 mph 52 % 0.00 in
13:54 82.6 °F 61.5 °F 30.04 in WSW 1.4 mph 3.5 mph 49 % 0.00 in
13:59 82.5 °F 61.4 °F 30.04 in West 2.4 mph 6.0 mph 49 % 0.00 in
14:04 82.4 °F 61.9 °F 30.04 in WSW 2.0 mph 5.0 mph 50 % 0.00 in
14:09 82.3 °F 61.2 °F 30.04 in West 0.7 mph 5.8 mph 49 % 0.00 in
14:14 82.2 °F 61.7 °F 30.04 in West 1.6 mph 3.5 mph 50 % 0.00 in
14:19 82.3 °F 61.2 °F 30.04 in WSW 2.9 mph 4.6 mph 49 % 0.00 in
14:24 82.3 °F 59.4 °F 30.04 in WSW 3.4 mph 4.0 mph 46 % 0.00 in
14:29 82.3 °F 60.6 °F 30.04 in WSW 3.5 mph 5.8 mph 48 % 0.00 in
14:34 82.3 °F 62.9 °F 30.04 in WSW 2.4 mph 4.6 mph 52 % 0.00 in
14:39 82.2 °F 59.4 °F 30.04 in West 1.4 mph 2.3 mph 46 % 0.00 in
14:44 82.3 °F 61.8 °F 30.03 in SW 3.2 mph 6.0 mph 50 % 0.00 in
14:49 82.3 °F 60.1 °F 30.04 in West 3.5 mph 5.8 mph 47 % 0.00 in
14:54 82.2 °F 61.1 °F 30.03 in SW 3.5 mph 4.0 mph 49 % 0.00 in
14:59 82.2 °F 62.8 °F 30.03 in WNW 1.1 mph 2.3 mph 52 % 0.00 in
15:04 82.1 °F 59.3 °F 30.03 in North 3.0 mph 5.8 mph 46 % 0.00 in
15:09 82.0 °F 57.9 °F 30.04 in WNW 2.9 mph 3.5 mph 44 % 0.00 in
15:15 81.9 °F 60.3 °F 30.03 in WNW 1.2 mph 3.5 mph 48 % 0.00 in
15:25 81.4 °F 58.6 °F 30.04 in SW 2.0 mph 3.5 mph 46 % 0.00 in
15:30 81.1 °F 59.0 °F 30.04 in WNW 2.8 mph 4.0 mph 47 % 0.00 in
15:35 80.6 °F 57.9 °F 30.04 in WNW 0.2 mph 2.3 mph 46 % 0.00 in
15:40 80.3 °F 58.2 °F 30.04 in NW 2.6 mph 5.8 mph 47 % 0.00 in
15:45 80.1 °F 57.5 °F 30.04 in North 2.6 mph 5.8 mph 46 % 0.00 in
15:50 80.0 °F 58.5 °F 30.04 in NW 1.5 mph 3.5 mph 48 % 0.00 in
15:55 80.0 °F 58.5 °F 30.04 in WNW 1.6 mph 4.0 mph 48 % 0.00 in
16:00 80.1 °F 58.0 °F 30.04 in NW 1.2 mph 4.6 mph 47 % 0.00 in
16:05 80.3 °F 59.4 °F 30.04 in WNW 0.9 mph 2.3 mph 49 % 0.00 in
16:10 80.3 °F 58.8 °F 30.04 in West 0.4 mph 3.5 mph 48 % 0.00 in
16:15 80.2 °F 58.7 °F 30.04 in WSW 3.7 mph 5.8 mph 48 % 0.00 in
16:20 79.9 °F 58.5 °F 30.05 in SW 1.0 mph 3.5 mph 48 % 0.00 in
16:25 79.5 °F 58.1 °F 30.05 in SSW 1.1 mph 4.6 mph 48 % 0.00 in
16:30 79.0 °F 58.2 °F 30.05 in WNW 0.2 mph 3.0 mph 49 % 0.00 in
16:35 78.5 °F 57.7 °F 30.05 in West 0.1 mph 3.5 mph 49 % 0.00 in
16:40 77.9 °F 58.3 °F 30.05 in Calm   1.2 mph 51 % 0.00 in
16:45 77.4 °F 57.9 °F 30.05 in WNW 0.8 mph 6.0 mph 51 % 0.00 in
16:50 77.1 °F 58.1 °F 30.06 in WNW 0.2 mph 1.2 mph 52 % 0.00 in
16:55 76.7 °F 58.8 °F 30.05 in Calm     54 % 0.00 in
17:00 76.5 °F 57.6 °F 30.06 in West 1.7 mph 3.5 mph 52 % 0.00 in
17:05 76.2 °F 57.8 °F 30.06 in WNW 1.9 mph 4.6 mph 53 % 0.00 in
17:10 76.0 °F 58.2 °F 30.06 in WNW 0.7 mph 3.5 mph 54 % 0.00 in
17:15 75.8 °F 58.0 °F 30.06 in WNW 1.9 mph 3.5 mph 54 % 0.00 in
17:20 75.7 °F 58.4 °F 30.06 in WNW 0.7 mph 3.5 mph 55 % 0.00 in
17:25 75.6 °F 58.3 °F 30.06 in WNW 0.4 mph 1.2 mph 55 % 0.00 in
17:30 75.5 °F 58.7 °F 30.06 in WNW 0.1 mph 3.5 mph 56 % 0.00 in
17:35 75.4 °F 59.6 °F 30.06 in Calm     58 % 0.00 in
17:40 75.3 °F 60.5 °F 30.06 in WNW 0.6 mph 3.5 mph 60 % 0.00 in
17:45 75.2 °F 59.4 °F 30.07 in WNW 0.2 mph 1.2 mph 58 % 0.00 in
17:50 75.1 °F 59.8 °F 30.07 in NNW 0.8 mph 3.0 mph 59 % 0.00 in
17:55 75.0 °F 58.2 °F 30.07 in NNW 0.4 mph 1.2 mph 56 % 0.00 in
18:00 75.0 °F 58.2 °F 30.07 in NNW 0.6 mph 2.0 mph 56 % 0.00 in
18:05 75.0 °F 57.7 °F 30.07 in NNW 0.8 mph 3.5 mph 55 % 0.00 in
18:10 74.9 °F 57.6 °F 30.07 in NNW 0.8 mph 2.3 mph 55 % 0.00 in
18:15 74.9 °F 58.1 °F 30.07 in Calm   1.0 mph 56 % 0.00 in
18:20 74.8 °F 57.5 °F 30.07 in NNW 2.9 mph 4.0 mph 55 % 0.00 in
18:25 74.8 °F 58.1 °F 30.07 in NNW 0.1 mph 1.2 mph 56 % 0.00 in
18:31 74.7 °F 58.0 °F 30.07 in NNW 1.2 mph 2.0 mph 56 % 0.00 in
18:36 74.6 °F 57.4 °F 30.07 in Calm   3.0 mph 55 % 0.00 in
18:40 74.4 °F 56.7 °F 30.07 in NNW 0.4 mph 3.0 mph 54 % 0.00 in
18:45 74.3 °F 57.6 °F 30.07 in Calm     56 % 0.00 in
18:50 74.2 °F 57.5 °F 30.07 in Calm     56 % 0.00 in
18:55 74.0 °F 57.8 °F 30.07 in Calm     57 % 0.00 in
19:01 73.9 °F 57.7 °F 30.07 in Calm     57 % 0.00 in
19:06 73.7 °F 57.5 °F 30.07 in Calm   1.2 mph 57 % 0.00 in
19:11 73.6 °F 57.9 °F 30.08 in Calm   1.2 mph 58 % 0.00 in
19:16 73.3 °F 57.6 °F 30.08 in Calm   1.0 mph 58 % 0.00 in
19:21 73.2 °F 57.5 °F 30.08 in Calm   2.0 mph 58 % 0.00 in
19:26 73.0 °F 57.8 °F 30.08 in Calm     59 % 0.00 in
19:31 72.8 °F 57.6 °F 30.08 in Calm     59 % 0.00 in
19:36 72.6 °F 58.4 °F 30.08 in Calm     61 % 0.00 in
19:41 72.4 °F 59.1 °F 30.09 in Calm     63 % 0.00 in
19:46 72.2 °F 59.8 °F 30.08 in Calm     65 % 0.00 in
19:51 72.0 °F 60.0 °F 30.09 in Calm     66 % 0.00 in
19:56 71.7 °F 59.7 °F 30.09 in Calm     66 % 0.00 in
20:01 71.4 °F 59.4 °F 30.09 in Calm     66 % 0.00 in
20:06 71.0 °F 59.5 °F 30.09 in Calm     67 % 0.00 in
20:11 70.6 °F 59.5 °F 30.09 in Calm     68 % 0.00 in
20:17 70.2 °F 59.6 °F 30.10 in Calm     69 % 0.00 in
20:22 69.8 °F 59.6 °F 30.10 in Calm     70 % 0.00 in
20:27 69.5 °F 59.7 °F 30.10 in Calm     71 % 0.00 in
20:32 69.1 °F 59.3 °F 30.11 in Calm     71 % 0.00 in
20:37 68.8 °F 59.0 °F 30.11 in Calm     71 % 0.00 in
20:42 68.5 °F 59.1 °F 30.11 in Calm   1.2 mph 72 % 0.00 in
20:45 68.4 °F 59.0 °F 30.11 in Calm     72 % 0.00 in
20:50 68.2 °F 58.8 °F 30.11 in Calm   1.2 mph 72 % 0.00 in
20:55 68.0 °F 59.0 °F 30.11 in Calm     73 % 0.00 in
21:00 67.8 °F 59.2 °F 30.11 in Calm     74 % 0.00 in
21:05 67.6 °F 59.0 °F 30.11 in Calm     74 % 0.00 in
21:10 67.4 °F 59.2 °F 30.12 in Calm     75 % 0.00 in
21:15 67.3 °F 59.1 °F 30.12 in Calm     75 % 0.00 in
21:20 67.1 °F 59.3 °F 30.12 in Calm     76 % 0.00 in
21:25 67.0 °F 59.5 °F 30.12 in Calm     77 % 0.00 in
21:31 66.8 °F 59.7 °F 30.12 in Calm     78 % 0.00 in
21:36 66.8 °F 59.7 °F 30.12 in Calm     78 % 0.00 in
21:41 66.7 °F 60.0 °F 30.12 in Calm     79 % 0.00 in
21:46 66.6 °F 59.9 °F 30.12 in Calm   1.0 mph 79 % 0.00 in
21:51 66.5 °F 60.1 °F 30.12 in Calm   1.0 mph 80 % 0.00 in
21:56 66.5 °F 60.1 °F 30.12 in Calm   1.0 mph 80 % 0.00 in
22:01 66.5 °F 60.1 °F 30.12 in Calm     80 % 0.00 in
22:06 66.5 °F 60.1 °F 30.12 in Calm     80 % 0.00 in
22:11 66.5 °F 60.1 °F 30.12 in Calm     80 % 0.00 in
22:16 66.5 °F 60.1 °F 30.12 in Calm     80 % 0.00 in
22:21 66.5 °F 59.8 °F 30.12 in Calm     79 % 0.00 in
22:26 66.5 °F 59.4 °F 30.12 in NNW 0.4 mph 1.2 mph 78 % 0.00 in
22:31 66.5 °F 59.4 °F 30.12 in Calm   1.2 mph 78 % 0.00 in
22:36 66.5 °F 59.8 °F 30.12 in Calm     79 % 0.00 in
22:41 66.5 °F 59.4 °F 30.12 in NNE 2.7 mph 4.0 mph 78 % 0.00 in
22:42 66.5 °F 59.4 °F 30.12 in North 2.7 mph 4.6 mph 78 % 0.00 in
22:48 66.6 °F 59.5 °F 30.13 in NE 0.1 mph 1.2 mph 78 % 0.00 in
22:53 66.6 °F 59.2 °F 30.13 in ENE 1.0 mph 3.5 mph 77 % 0.00 in
22:58 66.7 °F 59.3 °F 30.13 in NNE 1.8 mph 3.5 mph 77 % 0.00 in
23:03 66.8 °F 59.7 °F 30.13 in Calm   1.2 mph 78 % 0.00 in
23:08 67.0 °F 59.9 °F 30.13 in North 2.1 mph 3.5 mph 78 % 0.00 in
23:14 67.1 °F 60.0 °F 30.13 in North 0.9 mph 3.0 mph 78 % 0.00 in
23:19 67.3 °F 60.2 °F 30.13 in NNE 1.0 mph 3.5 mph 78 % 0.00 in
23:26 67.5 °F 60.4 °F 30.14 in North 0.7 mph 2.3 mph 78 % 0.00 in
23:29 67.5 °F 60.4 °F 30.14 in North 0.2 mph 2.3 mph 78 % 0.00 in
23:31 67.6 °F 60.5 °F 30.14 in NNE 2.5 mph 3.5 mph 78 % 0.00 in
23:33 67.7 °F 60.6 °F 30.14 in NNE 1.5 mph 3.5 mph 78 % 0.00 in
23:38 67.8 °F 60.3 °F 30.14 in NNE 0.8 mph 3.0 mph 77 % 0.00 in
23:43 68.0 °F 60.2 °F 30.14 in Calm   1.2 mph 76 % 0.00 in
23:48 68.1 °F 60.6 °F 30.14 in NNE 0.3 mph 2.3 mph 77 % 0.00 in
23:53 68.3 °F 60.8 °F 30.14 in NNE 3.2 mph 5.8 mph 77 % 0.00 in
23:59 68.4 °F 61.3 °F 30.14 in NNE 2.2 mph 5.8 mph 78 % 0.00 in
Crab Meadow Weather
Compliments of Weather Underground - 3 mb

Script developed by  Jim McMurry - jmcmurry@mwt.net Adapted for the template by  Wim van der Kuil - Leuven-Template.eu

Extremes: By average annual rainfall, the wettest place in the world is Mawslynram, in Meghalaya State, India with 467 1/2 inches per annum.